User: anonymous   Login
Location: Unspecified
(0.0000°N, 0.0000°E)
Time: 00:42:32
(UTC+00:00)
Language:

IDEFIX/ARIANE 42P - Orbit

View from above orbital plane
View from above orbital plane
View from above satellite
View from above satellite

Ground track
Ground track

The orbit data is extracted from the following two-line orbital elements,

1 27422U 02021B   17206.45328629 -.00000040 +00000-0 +29974-6 0  9999
2 27422 098.2315 204.6177 0013344 119.7982 240.4530 14.29255481792148
Epoch (UTC): 25 July 2017 10:52:43
Eccentricity: 0.0013344
inclination: 98.2315°
perigee height: 784 km
apogee height: 804 km
right ascension of ascending node: 204.6177°
argument of perigee: 119.7982°
revolutions per day: 14.29255481
mean anomaly at epoch: 240.4530°
orbit number at epoch: 79214

The dashed part of the orbit path shows where the satellite is in the earth's shadow,  

DLR